[[{"header":{"parameterUnit":"m.s-1","parameterCategory":2,"la1":30.2991,"la2":30.254,"lo1":-89.0895,"lo2":-89.0444,"dy":0.0017,"dx":0.0017,"nx":28,"ny":28,"refTime":"2024-08-31T21:00:00:Z","depth":"0","parameterNumber":2,"parameterNumberName":"U-component_of_CURRENTS"},"data":[0,0,0,0,0,0,0,0,0,0,0,0,0,0,0,0,0,0,0,0,0,0,0,0,0,0,0,0,0,0,0,0,0,0,0,0,0,0,0,0,0,0,0,0,0,0,0,0,0,0,0,0,0,0,0,0,0,0,-0.2516,-0.2516,0,-0.2556,-0.2556,-0.2557,-0.2507,-0.2505,-0.2504,-0.2502,-0.2458,-0.2458,-0.2459,0,0,0,0,0,0,0,0,0,0,0,0,0,-0.2472,-0.2472,-0.2516,-0.2516,-0.2517,-0.2556,-0.2556,-0.2557,-0.2508,-0.2505,-0.2503,-0.2501,-0.2458,-0.2458,-0.2459,0,0,0,0,0,0,0,0,0,0,0,0,0,-0.2498,-0.2473,-0.2516,-0.2498,-0.2497,-0.2556,-0.2557,-0.2557,-0.2508,-0.2505,-0.2503,-0.25,-0.2458,-0.2458,-0.2459,-0.2515,0,0,-0.2461,-0.2461,0,0,0,0,0,0,0,0,-0.2497,-0.25,-0.25,-0.2499,-0.2498,-0.2525,-0.2525,-0.2539,-0.2509,-0.2503,-0.2502,-0.2499,-0.2475,-0.2474,-0.2487,-0.2513,-0.2511,-0.2461,-0.2461,-0.2462,-0.2462,0,0,0,0,0,0,0,-0.2495,-0.2498,-0.2531,-0.2501,-0.25,-0.2514,-0.2514,-0.2528,-0.2501,-0.2503,-0.25,-0.2507,-0.2473,-0.2487,-0.2486,-0.2511,-0.2461,-0.2462,-0.2462,-0.2462,-0.2533,-0.2534,0,0,0,0,0,0,-0.2491,-0.2496,-0.253,-0.2532,-0.2492,-0.2516,-0.2516,-0.2518,-0.2502,-0.2498,-0.2509,-0.2504,-0.2487,-0.2485,-0.2484,-0.2503,-0.2462,-0.2462,-0.2463,-0.2531,-0.2533,-0.2534,0,0,0,0,0,0,-0.249,-0.2494,-0.2528,-0.2516,-0.2521,-0.2519,-0.2522,-0.252,-0.2527,-0.2508,-0.2501,-0.2516,-0.2485,-0.2483,-0.2499,-0.2502,-0.2463,-0.2463,-0.2529,-0.2532,-0.2534,-0.257,0,0,0,0,0,0,-0.2488,-0.2493,-0.2495,-0.2516,-0.2522,-0.2571,-0.2525,-0.2523,-0.2536,-0.253,-0.2513,-0.2506,-0.2483,-0.2498,-0.25,-0.2502,-0.2464,-0.2528,-0.253,-0.2533,-0.2567,-0.2574,-0.2579,0,0,0,0,0,-0.2487,-0.2504,-0.2495,-0.2499,-0.2524,-0.2573,-0.2579,-0.2567,-0.2539,-0.256,-0.2541,-0.2506,-0.2516,-0.2501,-0.2502,-0.2504,-0.2526,-0.253,-0.2533,-0.2565,-0.2572,-0.2579,0,0,0,0,0,0,-0.2486,-0.2502,-0.2491,-0.2511,-0.2542,-0.2565,-0.258,-0.2578,-0.2584,-0.2567,-0.2537,-0.2532,-0.2542,-0.2534,-0.2518,-0.2535,-0.2511,-0.2515,-0.2535,-0.2542,-0.2548,-0.2534,-0.2464,0,0,0,0,0,-0.2489,-0.2499,-0.2527,-0.2542,-0.2557,-0.2571,-0.2587,-0.2588,-0.2596,-0.2595,-0.258,-0.2565,-0.2563,-0.2559,-0.256,-0.2583,-0.2542,-0.2584,-0.2589,-0.2594,-0.2586,-0.2516,-0.2513,-0.2545,-0.2545,-0.2545,0,0,-0.2485,-0.2501,-0.2501,-0.2542,-0.2557,-0.2596,-0.2573,-0.2607,-0.2629,-0.2592,-0.2605,-0.259,-0.2577,-0.259,-0.2593,-0.2578,-0.2573,-0.2598,-0.2602,-0.2591,-0.2519,-0.2515,-0.2512,-0.2548,-0.2547,-0.2547,0,0,-0.2502,-0.2506,-0.2525,-0.2562,-0.26,-0.2617,-0.263,-0.2658,-0.2657,-0.269,-0.2652,-0.264,-0.2655,-0.2629,-0.2622,-0.2668,-0.2608,-0.2671,-0.2684,-0.2617,-0.2613,-0.2608,-0.2582,-0.2574,-0.267,-0.267,-0.267,0,-0.2498,-0.2522,-0.2543,-0.2587,-0.2606,-0.2627,-0.266,-0.2687,-0.2713,-0.2697,-0.2696,-0.267,-0.2668,-0.2648,-0.2669,-0.2676,-0.2639,-0.2655,-0.262,-0.2615,-0.2609,-0.2583,-0.2574,-0.2673,-0.2672,-0.2672,-0.2672,0,-0.2535,-0.256,-0.2581,-0.2627,-0.2663,-0.2698,-0.2737,-0.2753,-0.2749,-0.2749,-0.2731,-0.2726,-0.2691,-0.2703,-0.2708,-0.2672,-0.2661,-0.2634,-0.2593,-0.2608,-0.258,-0.257,-0.2676,-0.2675,-0.2674,-0.2674,0,0,-0.2487,-0.2583,-0.2586,-0.259,-0.268,-0.2691,-0.2749,-0.2767,-0.274,-0.2773,-0.2728,-0.2753,-0.2716,-0.2707,-0.2694,-0.266,-0.262,-0.2642,-0.2637,-0.26,-0.2492,-0.2438,-0.2422,-0.2574,-0.2572,-0.257,-0.2498,0,-0.2494,-0.2552,-0.2617,-0.2648,-0.266,-0.2712,-0.2743,-0.2763,-0.2767,-0.2736,-0.2726,-0.2688,-0.2729,-0.2689,-0.2671,-0.2628,-0.2592,-0.2644,-0.2497,-0.2494,-0.2429,-0.2407,-0.2291,-0.2211,-0.2488,-0.2487,-0.2485,0,-0.2493,-0.2518,-0.2562,-0.2592,-0.2602,-0.2634,-0.2623,-0.2659,-0.2659,-0.2655,-0.2636,-0.2624,-0.2608,-0.2615,-0.2558,-0.2587,-0.2546,-0.2516,-0.2511,-0.2433,-0.2419,-0.2237,-0.2182,-0.217,-0.247,-0.2471,-0.2472,0,-0.2385,-0.2463,-0.2476,-0.25,-0.2563,-0.2564,-0.2582,-0.2603,-0.2594,-0.2579,-0.2553,-0.2541,-0.2508,-0.2473,-0.2477,-0.2493,-0.2395,-0.2394,-0.2307,-0.2305,-0.2162,-0.2149,-0.2055,-0.231,-0.2311,-0.2311,-0.2311,0,-0.2348,-0.2342,-0.2411,-0.2408,-0.2366,-0.2452,-0.2411,-0.2431,-0.2449,-0.2411,-0.2477,-0.2434,-0.2463,-0.2437,-0.2435,-0.2355,-0.2356,-0.2296,-0.2265,-0.2178,-0.2168,-0.2117,-0.2148,-0.2308,-0.2309,-0.2309,-0.231,0,-0.2229,-0.2303,-0.2275,-0.2313,-0.2318,-0.2266,-0.2301,-0.2272,-0.232,-0.2276,-0.2269,-0.2327,-0.2296,-0.2333,-0.2272,-0.2275,-0.2165,-0.2175,-0.2104,-0.2065,-0.1965,-0.2004,-0.1871,-0.1826,-0.2051,-0.2049,-0.2048,0,-0.2176,-0.2163,-0.2158,-0.2129,-0.2144,-0.2112,-0.2103,-0.217,-0.216,-0.2195,-0.2157,-0.2155,-0.2131,-0.2082,-0.2059,-0.2022,-0.2047,-0.1907,-0.1906,-0.1927,-0.1947,-0.198,-0.1955,-0.1752,-0.1748,-0.1745,-0.1742,0,-0.2026,-0.2031,-0.2003,-0.1956,-0.193,-0.1904,-0.1903,-0.1887,-0.1968,-0.196,-0.1944,-0.1933,-0.1908,-0.1836,-0.1828,-0.1792,-0.1852,-0.1836,-0.1843,-0.1687,-0.1726,-0.1678,-0.1882,-0.1713,-0.1716,-0.1718,-0.1719,-0.172,-0.1879,-0.182,-0.1802,-0.175,-0.1732,-0.1703,-0.1642,-0.1682,-0.1657,-0.1648,-0.171,-0.1671,-0.1669,-0.1626,-0.1609,-0.1535,-0.1602,-0.1499,-0.1543,-0.1575,-0.1521,-0.1689,-0.1494,-0.1496,-0.1497,-0.1498,-0.1499,0,-0.1683,-0.1663,-0.161,-0.1548,-0.1494,-0.154,-0.1516,-0.1461,-0.1408,-0.1443,-0.1422,-0.1396,-0.1342,-0.1371,-0.1325,-0.1277,-0.1264,-0.1263,-0.1276,-0.1264,-0.137,-0.1347,-0.1127,-0.1127,-0.1127,-0.1127,-0.1127,-0.1127,-0.1575,-0.1476,-0.1478,-0.1342,-0.1314,-0.1204,-0.1168,-0.1123,-0.1122,-0.1074,-0.1079,-0.112,-0.1159,-0.1262,-0.1211,-0.1159,-0.1163,-0.1102,-0.1173,-0.1259,-0.1285,-0.131,-0.1293,-0.1066,-0.1066,-0.0992,-0.0992,-0.0991]},{"header":{"parameterUnit":"m.s-1","parameterCategory":2,"la1":30.2991,"la2":30.254,"lo1":-89.0895,"lo2":-89.0444,"dy":0.0017,"dx":0.0017,"nx":28,"ny":28,"refTime":"2024-08-31T21:00:00:Z","depth":"0","parameterNumber":3,"parameterNumberName":"V-component_of_CURRENTS"},"data":[0,0,0,0,0,0,0,0,0,0,0,0,0,0,0,0,0,0,0,0,0,0,0,0,0,0,0,0,0,0,0,0,0,0,0,0,0,0,0,0,0,0,0,0,0,0,0,0,0,0,0,0,0,0,0,0,0,0,-0.0321,-0.032,0,-0.0231,-0.023,-0.0229,-0.0172,-0.0172,-0.0172,-0.0171,-0.0043,-0.004,-0.0037,0,0,0,0,0,0,0,0,0,0,0,0,0,-0.0404,-0.0404,-0.0321,-0.032,-0.0319,-0.0231,-0.023,-0.0228,-0.0172,-0.0172,-0.0172,-0.0171,-0.0044,-0.004,-0.0037,0,0,0,0,0,0,0,0,0,0,0,0,0,-0.0347,-0.0403,-0.0321,-0.028,-0.0276,-0.0231,-0.023,-0.0228,-0.0172,-0.0172,-0.0172,-0.0171,-0.0045,-0.0041,-0.0036,-0.0016,0,0,-0.0022,-0.002,0,0,0,0,0,0,0,0,-0.035,-0.0344,-0.0288,-0.0283,-0.0278,-0.0212,-0.0212,-0.0155,-0.0173,-0.0212,-0.0171,-0.0171,-0.0097,-0.0088,-0.0072,-0.001,-0.0004,-0.0021,-0.0018,-0.0016,-0.0015,0,0,0,0,0,0,0,-0.0354,-0.0347,-0.0285,-0.0286,-0.0281,-0.0253,-0.0244,-0.0201,-0.0157,-0.0208,-0.0204,-0.0194,-0.0094,-0.0077,-0.0068,-0.0002,-0.0021,-0.0017,-0.0014,-0.0012,0.0095,0.0095,0,0,0,0,0,0,-0.0368,-0.0351,-0.0288,-0.0283,-0.0314,-0.0252,-0.0242,-0.0234,-0.0158,-0.0146,-0.0195,-0.0192,-0.0085,-0.0074,-0.0064,-0.0033,-0.0016,-0.0012,-0.0009,0.0095,0.0095,0.0095,0,0,0,0,0,0,-0.037,-0.0363,-0.0292,-0.0315,-0.0304,-0.0251,-0.0242,-0.0232,-0.0214,-0.0148,-0.0136,-0.0186,-0.0084,-0.007,-0.0026,-0.0027,-0.001,-0.0006,0.0095,0.0095,0.0095,0.0028,0,0,0,0,0,0,-0.0373,-0.0365,-0.0366,-0.0316,-0.0303,-0.027,-0.0242,-0.0231,-0.0209,-0.0204,-0.0137,-0.0125,-0.0083,-0.0033,-0.0021,-0.002,-0.0002,0.0095,0.0095,0.0095,0.003,0.0026,0.0022,0,0,0,0,0,-0.0376,-0.0379,-0.0366,-0.0359,-0.0305,-0.027,-0.0261,-0.0222,-0.0209,-0.0204,-0.0158,-0.0127,-0.0024,-0.0029,-0.0015,-0.0013,0.0095,0.0095,0.0095,0.0032,0.0027,0.0022,0,0,0,0,0,0,-0.0413,-0.0372,-0.0357,-0.0347,-0.0314,-0.0261,-0.0253,-0.0227,-0.0187,-0.0184,-0.0124,-0.0108,-0.0072,-0.0032,-0.004,0.0018,0.0039,0.0042,-0.0013,-0.0018,-0.0022,-0.0028,0.0002,0,0,0,0,0,-0.0423,-0.0416,-0.0371,-0.0363,-0.0352,-0.0305,-0.0287,-0.0261,-0.0218,-0.02,-0.0153,-0.0103,-0.0061,-0.0032,0.0009,0.0044,0.0086,0.0054,0.005,0.0046,0.0051,0.0103,0.0104,0.0095,0.0095,0.0095,0,0,-0.0434,-0.0412,-0.0407,-0.0371,-0.0344,-0.0331,-0.0293,-0.0271,-0.0254,-0.0192,-0.0159,-0.0118,-0.0056,-0.0021,-0.0001,0.0014,0.0071,0.0046,0.0042,0.0049,0.0103,0.0104,0.0105,0.0095,0.0095,0.0095,0,0,-0.0463,-0.0435,-0.0446,-0.0424,-0.0391,-0.0353,-0.0351,-0.0302,-0.0275,-0.0239,-0.0194,-0.0153,-0.0086,-0.0042,-0.0012,-0.0012,0.0042,-0.0,-0.0019,0.0031,0.0032,0.0034,0.0084,0.009,0.0003,0.0003,0.0003,0,-0.0482,-0.0485,-0.0442,-0.0448,-0.0431,-0.0369,-0.0372,-0.0334,-0.0275,-0.0251,-0.0237,-0.0138,-0.0095,-0.0041,-0.0044,-0.0021,0.0017,-0.0008,0.0025,0.0028,0.003,0.0081,0.0089,-0.0,-0.0,0.0,0.0001,0,-0.052,-0.0523,-0.0526,-0.0509,-0.048,-0.0473,-0.0414,-0.0383,-0.0341,-0.0299,-0.0243,-0.018,-0.0118,-0.0103,-0.0073,-0.0031,-0.0008,0.0007,0.0034,0.0027,0.0081,0.0091,-0.0005,-0.0004,-0.0003,-0.0002,0,0,-0.0565,-0.0559,-0.0559,-0.0563,-0.0514,-0.0492,-0.0457,-0.0404,-0.0375,-0.0317,-0.0275,-0.0211,-0.0171,-0.0134,-0.0088,-0.0045,-0.0002,-0.0016,-0.0012,0.0027,0.0113,0.0151,0.0166,0.0018,0.0019,0.002,0.0141,0,-0.0612,-0.0643,-0.0614,-0.062,-0.0627,-0.0556,-0.0523,-0.0461,-0.0399,-0.0341,-0.0266,-0.0213,-0.0183,-0.0155,-0.0107,-0.0024,0.0021,-0.0036,0.012,0.0125,0.0155,0.0178,0.0196,0.0307,0.0151,0.0152,0.0154,0,-0.0663,-0.0673,-0.0703,-0.0675,-0.0668,-0.0655,-0.0576,-0.0539,-0.0439,-0.0392,-0.032,-0.0253,-0.0172,-0.0153,-0.001,-0.0047,0.0024,0.0085,0.0092,0.016,0.0182,0.0292,0.0331,0.0433,0.0169,0.0168,0.0167,0,-0.0721,-0.0729,-0.0753,-0.0748,-0.0707,-0.0695,-0.0655,-0.0563,-0.052,-0.0423,-0.0383,-0.0271,-0.0207,-0.0106,0.0024,0.0009,0.0184,0.018,0.0285,0.0288,0.0353,0.036,0.0506,0.0274,0.0274,0.0274,0.0273,0,-0.0787,-0.0803,-0.0787,-0.0805,-0.0801,-0.075,-0.0723,-0.0662,-0.0576,-0.052,-0.0421,-0.0347,-0.0194,-0.007,0.0031,0.02,0.0195,0.0295,0.0328,0.033,0.0333,0.0464,0.0498,0.0278,0.0277,0.0276,0.0275,0,-0.0853,-0.0853,-0.0871,-0.0848,-0.0839,-0.0832,-0.0773,-0.0745,-0.0663,-0.0584,-0.0556,-0.0391,-0.022,-0.0062,0.0129,0.0217,0.0436,0.0419,0.0413,0.0443,0.0622,0.0649,0.0826,0.0896,0.0555,0.0557,0.0558,0,-0.0892,-0.0917,-0.0907,-0.0907,-0.0904,-0.0887,-0.0869,-0.0796,-0.0755,-0.0602,-0.0564,-0.0383,-0.0224,0.0073,0.0263,0.0469,0.0531,0.0591,0.0561,0.0652,0.0707,0.0711,0.0756,0.0622,0.0624,0.0626,0.0627,0,-0.0946,-0.0942,-0.0945,-0.0956,-0.0955,-0.0945,-0.0916,-0.0895,-0.0788,-0.0704,-0.054,-0.0402,-0.0101,0.0173,0.0431,0.0538,0.0667,0.0629,0.0732,0.0787,0.0793,0.0869,0.0519,0.0641,0.0639,0.0638,0.0638,0.0637,-0.0961,-0.097,-0.0972,-0.0976,-0.0982,-0.098,-0.0959,-0.0906,-0.0827,-0.065,-0.0527,-0.0259,0.0093,0.0476,0.0601,0.0848,0.0805,0.0906,0.0938,0.0937,0.0992,0.0672,0.0819,0.0819,0.0819,0.0819,0.0818,0,-0.0964,-0.0971,-0.0984,-0.0988,-0.1,-0.0997,-0.0962,-0.0908,-0.0802,-0.0599,-0.041,0.0058,0.0391,0.0695,0.1025,0.1148,0.1161,0.1202,0.1213,0.125,0.0986,0.0976,0.1153,0.1152,0.1152,0.1152,0.1152,0.1152,-0.0961,-0.097,-0.0978,-0.0992,-0.0998,-0.0984,-0.0956,-0.0855,-0.0695,-0.0351,-0.0035,0.0224,0.0628,0.1111,0.1402,0.1419,0.1528,0.1502,0.1577,0.1387,0.1361,0.1336,0.1337,0.1586,0.1586,0.1823,0.1825,0.1827]}],[{"header":{"parameterUnit":"m.s-1","parameterCategory":2,"la1":30.2991,"la2":30.254,"lo1":-89.0895,"lo2":-89.0444,"dy":0.0017,"dx":0.0017,"nx":28,"ny":28,"refTime":"2024-08-31T21:00:00:Z","depth":"2","parameterNumber":2,"parameterNumberName":"U-component_of_CURRENTS"},"data":[0,0,0,0,0,0,0,0,0,0,0,0,0,0,0,0,0,0,0,0,0,0,0,0,0,0,0,0,0,0,0,0,0,0,0,0,0,0,0,0,0,0,0,0,0,0,0,0,0,0,0,0,0,0,0,0,0,0,-0.1982,-0.1983,0,-0.1988,-0.1988,-0.1988,-0.1969,-0.1969,-0.1969,-0.1969,-0.1939,-0.1939,-0.1938,0,0,0,0,0,0,0,0,0,0,0,0,0,-0.1966,-0.1966,-0.1982,-0.1983,-0.1983,-0.1988,-0.1988,-0.1987,-0.1969,-0.1969,-0.1969,-0.1969,-0.194,-0.1939,-0.1938,0,0,0,0,0,0,0,0,0,0,0,0,0,-0.1969,-0.1966,-0.1982,-0.1977,-0.1977,-0.1988,-0.1988,-0.1987,-0.1969,-0.1969,-0.1969,-0.1968,-0.194,-0.1939,-0.1938,-0.1939,0,0,-0.1935,-0.1935,0,0,0,0,0,0,0,0,-0.1968,-0.1969,-0.1978,-0.1978,-0.1978,-0.1981,-0.1971,-0.1971,-0.1969,-0.1968,-0.1969,-0.1968,-0.1953,-0.1951,-0.1948,-0.1938,-0.1936,-0.1935,-0.1935,-0.1935,-0.1934,0,0,0,0,0,0,0,-0.1968,-0.1968,-0.1981,-0.1978,-0.1978,-0.1979,-0.1978,-0.1971,-0.1959,-0.1968,-0.1968,-0.1975,-0.1952,-0.1949,-0.1947,-0.1936,-0.1935,-0.1935,-0.1934,-0.1934,-0.198,-0.1981,0,0,0,0,0,0,-0.1975,-0.1968,-0.1981,-0.1981,-0.1977,-0.1979,-0.1979,-0.1977,-0.196,-0.1958,-0.1975,-0.1974,-0.195,-0.1948,-0.1946,-0.1974,-0.1935,-0.1934,-0.1933,-0.1978,-0.198,-0.1982,0,0,0,0,0,0,-0.1974,-0.1976,-0.198,-0.1978,-0.198,-0.198,-0.1979,-0.1978,-0.1983,-0.1966,-0.1962,-0.1983,-0.195,-0.1947,-0.196,-0.1972,-0.1933,-0.1933,-0.1976,-0.1979,-0.1981,-0.2013,0,0,0,0,0,0,-0.1974,-0.1975,-0.1984,-0.1979,-0.198,-0.1994,-0.1979,-0.1978,-0.1989,-0.1987,-0.1971,-0.1967,-0.1949,-0.1962,-0.196,-0.197,-0.1932,-0.1974,-0.1977,-0.198,-0.201,-0.2017,-0.2022,0,0,0,0,0,-0.1973,-0.1975,-0.1984,-0.1987,-0.1989,-0.1995,-0.1996,-0.1993,-0.1989,-0.1995,-0.1995,-0.1968,-0.1981,-0.1963,-0.1959,-0.197,-0.1972,-0.1976,-0.198,-0.2007,-0.2015,-0.2022,0,0,0,0,0,0,-0.1975,-0.1974,-0.1983,-0.1988,-0.2,-0.1994,-0.1997,-0.2002,-0.2005,-0.2004,-0.1987,-0.1984,-0.1998,-0.199,-0.197,-0.1998,-0.1974,-0.1977,-0.1996,-0.2003,-0.2009,-0.2019,-0.1931,0,0,0,0,0,-0.1983,-0.1977,-0.1991,-0.1994,-0.2001,-0.2004,-0.201,-0.2012,-0.2013,-0.2014,-0.2012,-0.2012,-0.2011,-0.2012,-0.201,-0.2024,-0.1995,-0.2034,-0.204,-0.2045,-0.2054,-0.2005,-0.2007,-0.1995,-0.1995,-0.1995,0,0,-0.1982,-0.1983,-0.1981,-0.1994,-0.1997,-0.2021,-0.2005,-0.2014,-0.204,-0.201,-0.2042,-0.2029,-0.2021,-0.2035,-0.2042,-0.203,-0.2038,-0.205,-0.2054,-0.2061,-0.2009,-0.201,-0.2011,-0.1998,-0.1997,-0.1997,0,0,-0.1984,-0.1983,-0.1989,-0.2007,-0.2026,-0.2029,-0.2038,-0.2051,-0.2061,-0.2093,-0.2076,-0.2078,-0.2089,-0.208,-0.2076,-0.212,-0.2069,-0.2123,-0.216,-0.2112,-0.2112,-0.2111,-0.2085,-0.2081,-0.2128,-0.2128,-0.2128,0,-0.2003,-0.2,-0.1995,-0.2021,-0.2035,-0.2039,-0.2064,-0.2083,-0.2104,-0.2106,-0.2112,-0.2112,-0.2109,-0.2107,-0.2136,-0.213,-0.2101,-0.2125,-0.2116,-0.2115,-0.2113,-0.2086,-0.2082,-0.213,-0.213,-0.2129,-0.2129,0,-0.2006,-0.2028,-0.203,-0.2062,-0.208,-0.2092,-0.2124,-0.2146,-0.2158,-0.2165,-0.2173,-0.217,-0.2161,-0.217,-0.2174,-0.2168,-0.215,-0.2121,-0.2087,-0.2116,-0.2087,-0.2082,-0.2133,-0.2132,-0.2131,-0.2131,0,0,-0.1986,-0.2029,-0.2032,-0.205,-0.2098,-0.2099,-0.2155,-0.2176,-0.2181,-0.2213,-0.2209,-0.2236,-0.2213,-0.2212,-0.22,-0.2186,-0.2167,-0.2166,-0.2162,-0.2124,-0.2073,-0.2005,-0.1992,-0.2124,-0.2123,-0.2123,-0.2059,0,-0.1995,-0.2032,-0.2058,-0.2094,-0.2109,-0.2144,-0.2182,-0.2206,-0.2221,-0.2223,-0.222,-0.2211,-0.2234,-0.2217,-0.2211,-0.2173,-0.2155,-0.2189,-0.2066,-0.2063,-0.1985,-0.1984,-0.1836,-0.1762,-0.2054,-0.2053,-0.2052,0,-0.1982,-0.2005,-0.2042,-0.2084,-0.2093,-0.2123,-0.2141,-0.2179,-0.2198,-0.2207,-0.2206,-0.2196,-0.22,-0.2199,-0.2157,-0.2174,-0.2139,-0.2112,-0.2107,-0.2028,-0.1985,-0.1781,-0.1741,-0.2043,-0.2044,-0.2044,-0.2045,0,-0.1915,-0.1984,-0.1999,-0.202,-0.2081,-0.2098,-0.2123,-0.2156,-0.2166,-0.2181,-0.2173,-0.2171,-0.2153,-0.2123,-0.2108,-0.212,-0.2042,-0.2032,-0.1937,-0.1933,-0.1777,-0.1759,-0.1983,-0.1983,-0.1983,-0.1983,-0.1983,0,-0.1883,-0.1894,-0.1966,-0.197,-0.1972,-0.2041,-0.2039,-0.2072,-0.2103,-0.2082,-0.2142,-0.2111,-0.2131,-0.2099,-0.2085,-0.1999,-0.2013,-0.1943,-0.1904,-0.1788,-0.1772,-0.1993,-0.1996,-0.1981,-0.1981,-0.1982,-0.1982,0,-0.1792,-0.1849,-0.1861,-0.1923,-0.1938,-0.1929,-0.1978,-0.1973,-0.203,-0.2008,-0.201,-0.2051,-0.2007,-0.2019,-0.1961,-0.1944,-0.188,-0.184,-0.1722,-0.1671,-0.1814,-0.1819,-0.1725,-0.1722,-0.1719,-0.1717,-0.1715,0,-0.1746,-0.1748,-0.1796,-0.1791,-0.1816,-0.1829,-0.1833,-0.1908,-0.1909,-0.1946,-0.1916,-0.1908,-0.186,-0.1791,-0.1744,-0.1685,-0.1771,-0.1537,-0.1534,-0.1812,-0.1784,-0.1793,-0.1802,-0.1347,-0.1343,-0.1339,-0.1336,0,-0.1645,-0.1666,-0.1667,-0.1666,-0.1669,-0.1672,-0.1694,-0.1691,-0.1764,-0.176,-0.1733,-0.1705,-0.1648,-0.1521,-0.1481,-0.1434,-0.1543,-0.1456,-0.1734,-0.1444,-0.1453,-0.1427,-0.1448,-0.1302,-0.1305,-0.1308,-0.1309,-0.1311,-0.155,-0.1526,-0.1533,-0.1521,-0.1527,-0.1512,-0.1474,-0.1509,-0.1492,-0.1469,-0.1511,-0.1423,-0.1423,-0.1257,-0.1203,-0.1178,-0.128,-0.1249,-0.1262,-0.1278,-0.1254,-0.1258,-0.1068,-0.1069,-0.1071,-0.1073,-0.1074,0,-0.1413,-0.1406,-0.1391,-0.1369,-0.1331,-0.1378,-0.1369,-0.132,-0.1263,-0.1253,-0.121,-0.1067,-0.0976,-0.099,-0.0882,-0.0883,-0.0892,-0.0866,-0.0876,-0.0908,-0.0938,-0.0899,-0.0617,-0.0616,-0.0615,-0.0614,0,0,-0.1335,-0.1276,-0.128,-0.1182,-0.1172,-0.1082,-0.1053,-0.1008,-0.0979,-0.0893,-0.0837,-0.0875,-0.0914,-0.0747,-0.0727,-0.065,-0.0773,-0.0619,-0.0977,-0.1016,-0.1044,-0.1141,-0.1114,0,0,0,0,0]},{"header":{"parameterUnit":"m.s-1","parameterCategory":2,"la1":30.2991,"la2":30.254,"lo1":-89.0895,"lo2":-89.0444,"dy":0.0017,"dx":0.0017,"nx":28,"ny":28,"refTime":"2024-08-31T21:00:00:Z","depth":"2","parameterNumber":3,"parameterNumberName":"V-component_of_CURRENTS"},"data":[0,0,0,0,0,0,0,0,0,0,0,0,0,0,0,0,0,0,0,0,0,0,0,0,0,0,0,0,0,0,0,0,0,0,0,0,0,0,0,0,0,0,0,0,0,0,0,0,0,0,0,0,0,0,0,0,0,0,-0.0248,-0.0247,0,-0.0173,-0.0172,-0.0171,-0.0126,-0.0126,-0.0126,-0.0126,-0.0016,-0.0014,-0.0011,0,0,0,0,0,0,0,0,0,0,0,0,0,-0.0306,-0.0306,-0.0248,-0.0247,-0.0246,-0.0173,-0.0172,-0.0171,-0.0127,-0.0126,-0.0126,-0.0126,-0.0017,-0.0014,-0.0011,0,0,0,0,0,0,0,0,0,0,0,0,0,-0.0262,-0.0306,-0.0248,-0.0214,-0.0211,-0.0173,-0.0172,-0.0171,-0.0127,-0.0126,-0.0126,-0.0125,-0.0018,-0.0014,-0.001,0.0007,0,0,0.0002,0.0004,0,0,0,0,0,0,0,0,-0.0265,-0.026,-0.022,-0.0217,-0.0212,-0.0158,-0.0152,-0.0109,-0.0127,-0.0159,-0.0126,-0.0125,-0.006,-0.0053,-0.0041,0.0012,0.0017,0.0002,0.0005,0.0007,0.0008,0,0,0,0,0,0,0,-0.0268,-0.0263,-0.0219,-0.0219,-0.0214,-0.0187,-0.0181,-0.0144,-0.0113,-0.0156,-0.0153,-0.0144,-0.0058,-0.0045,-0.0038,0.0019,0.0002,0.0006,0.0008,0.001,0.0101,0.0101,0,0,0,0,0,0,-0.0279,-0.0266,-0.0221,-0.0216,-0.0237,-0.0187,-0.018,-0.0176,-0.0114,-0.0104,-0.0144,-0.0142,-0.0052,-0.0043,-0.0034,-0.0004,0.0007,0.001,0.0013,0.0101,0.0101,0.0101,0,0,0,0,0,0,-0.028,-0.0276,-0.0224,-0.0238,-0.023,-0.0186,-0.0183,-0.0175,-0.0161,-0.0104,-0.0094,-0.0138,-0.0051,-0.0039,-0.0001,0.0001,0.0012,0.0016,0.0101,0.0101,0.0101,0.0052,0,0,0,0,0,0,-0.0282,-0.0277,-0.0282,-0.0239,-0.0229,-0.0207,-0.0183,-0.0174,-0.0156,-0.0152,-0.0096,-0.0085,-0.005,-0.0007,0.0003,0.0006,0.0019,0.0101,0.0101,0.0101,0.0054,0.0051,0.0048,0,0,0,0,0,-0.0285,-0.0292,-0.0283,-0.0277,-0.0237,-0.0207,-0.02,-0.0167,-0.0156,-0.0153,-0.0114,-0.0087,0.0,-0.0004,0.0008,0.0013,0.0101,0.0101,0.0101,0.0055,0.0051,0.0048,0,0,0,0,0,0,-0.0319,-0.0287,-0.0276,-0.0273,-0.0245,-0.02,-0.0194,-0.0172,-0.0139,-0.0136,-0.0084,-0.0071,-0.0039,-0.0007,-0.0013,0.0039,0.0054,0.0057,0.0015,0.0012,0.0009,0.0002,0.0022,0,0,0,0,0,-0.0331,-0.0327,-0.029,-0.0288,-0.0278,-0.0239,-0.0224,-0.0202,-0.0165,-0.0151,-0.0111,-0.0068,-0.003,-0.0005,0.003,0.0062,0.0095,0.0072,0.0069,0.0066,0.0069,0.0115,0.0117,0.0101,0.0101,0.0101,0,0,-0.0343,-0.0324,-0.0322,-0.0295,-0.0273,-0.0262,-0.0229,-0.0211,-0.0195,-0.0144,-0.0115,-0.0079,-0.0026,0.0007,0.0024,0.0036,0.0087,0.0066,0.0063,0.0068,0.0116,0.0117,0.0119,0.0101,0.0101,0.0101,0,0,-0.037,-0.0351,-0.0362,-0.0344,-0.0315,-0.0282,-0.028,-0.0239,-0.0215,-0.0184,-0.0144,-0.0107,-0.005,-0.0009,0.0019,0.0022,0.0065,0.003,0.0018,0.0062,0.0064,0.0066,0.0105,0.0111,0.0034,0.0034,0.0034,0,-0.0392,-0.0395,-0.0359,-0.0365,-0.0349,-0.0296,-0.0298,-0.0265,-0.0215,-0.0193,-0.0182,-0.0094,-0.0055,-0.0002,-0.0004,0.0016,0.0046,0.0026,0.0058,0.0061,0.0064,0.0104,0.0111,0.0032,0.0032,0.0032,0.0033,0,-0.0425,-0.043,-0.0433,-0.0418,-0.0393,-0.0387,-0.0334,-0.0308,-0.0271,-0.0233,-0.0181,-0.0124,-0.0069,-0.0054,-0.0027,0.0014,0.003,0.0043,0.0065,0.0062,0.0105,0.0113,0.0028,0.0029,0.003,0.0031,0,0,-0.0471,-0.0462,-0.0463,-0.0467,-0.0422,-0.0404,-0.0371,-0.0322,-0.0295,-0.0245,-0.0205,-0.0143,-0.011,-0.0076,-0.0033,0.0008,0.0047,0.0029,0.0032,0.0063,0.0144,0.0166,0.0178,0.0064,0.0066,0.0067,0.0163,0,-0.0512,-0.054,-0.0511,-0.0517,-0.0523,-0.0459,-0.0428,-0.0373,-0.0316,-0.0264,-0.0192,-0.0145,-0.0116,-0.0092,-0.0046,0.0027,0.0067,0.0019,0.0146,0.015,0.0167,0.0188,0.0155,0.024,0.0172,0.0173,0.0174,0,-0.0558,-0.0566,-0.0592,-0.0566,-0.056,-0.0549,-0.0478,-0.0443,-0.0352,-0.0308,-0.0241,-0.0181,-0.0104,-0.0088,0.0039,0.0007,0.0067,0.0121,0.0126,0.0172,0.0188,0.0234,0.0258,0.0188,0.0187,0.0186,0.0185,0,-0.061,-0.0617,-0.0637,-0.0633,-0.0596,-0.0586,-0.0551,-0.0467,-0.0428,-0.0338,-0.0302,-0.0198,-0.014,-0.0051,0.0062,0.0051,0.0201,0.0202,0.0281,0.0283,0.0295,0.0296,0.0284,0.0284,0.0284,0.0283,0.0283,0,-0.0666,-0.0681,-0.0671,-0.0686,-0.0689,-0.064,-0.0618,-0.0564,-0.0483,-0.0431,-0.0338,-0.027,-0.013,-0.0022,0.0066,0.0208,0.0208,0.0288,0.0315,0.0276,0.0275,0.026,0.0256,0.0287,0.0286,0.0285,0.0285,0,-0.0724,-0.0723,-0.0746,-0.0729,-0.0723,-0.0723,-0.0672,-0.0647,-0.057,-0.0497,-0.0472,-0.0315,-0.0166,-0.0026,0.0141,0.0218,0.0341,0.0386,0.033,0.0349,0.039,0.0382,0.0487,0.0489,0.049,0.0491,0.0492,0,-0.0759,-0.0782,-0.0786,-0.0793,-0.0792,-0.0784,-0.0771,-0.0702,-0.0662,-0.0516,-0.0481,-0.0319,-0.0179,0.0075,0.0233,0.0404,0.0395,0.0464,0.0438,0.0398,0.0414,0.0403,0.0394,0.0433,0.0433,0.0433,0.0434,0,-0.0813,-0.0815,-0.0826,-0.0847,-0.0853,-0.085,-0.0825,-0.0803,-0.0699,-0.0618,-0.0463,-0.0341,-0.0089,0.0121,0.0331,0.0414,0.0434,0.0478,0.0469,0.0381,0.0354,0.0366,0.0358,0.0437,0.0437,0.0436,0.0436,0.0436,-0.0838,-0.0856,-0.0868,-0.0882,-0.0893,-0.0891,-0.0874,-0.0818,-0.074,-0.0571,-0.0459,-0.0237,-0.0058,0.0271,0.0393,0.0499,0.0497,0.0518,0.0514,0.0511,0.0482,0.0459,0.0556,0.0556,0.0557,0.0557,0.0557,0,-0.0856,-0.0871,-0.0892,-0.0907,-0.092,-0.0918,-0.0881,-0.0828,-0.072,-0.0544,-0.037,-0.013,0.0096,0.0273,0.0449,0.0549,0.0519,0.0554,0.0494,0.049,0.0487,0.0455,0.0523,0.0524,0.0524,0.0524,0,0,-0.0863,-0.0886,-0.0896,-0.0917,-0.0927,-0.0916,-0.0887,-0.0787,-0.0649,-0.0451,-0.0268,-0.0054,0.0147,0.0271,0.0378,0.0462,0.0445,0.0458,0.0472,0.0383,0.0379,0.0452,0.0398,0,0,0,0,0]}],[{"header":{"parameterUnit":"m.s-1","parameterCategory":2,"la1":30.2991,"la2":30.254,"lo1":-89.0895,"lo2":-89.0444,"dy":0.0017,"dx":0.0017,"nx":28,"ny":28,"refTime":"2024-08-31T21:00:00:Z","depth":"4","parameterNumber":2,"parameterNumberName":"U-component_of_CURRENTS"},"data":[0,0,0,0,0,0,0,0,0,0,0,0,0,0,0,0,0,0,0,0,0,0,0,0,0,0,0,0,0,0,0,0,0,0,0,0,0,0,0,0,0,0,0,0,0,0,0,0,0,0,0,0,0,0,0,0,0,0,-0.1131,-0.1132,0,-0.1179,-0.1179,-0.118,-0.1231,-0.1232,-0.1233,-0.1233,-0.1268,-0.1268,-0.1269,0,0,0,0,0,0,0,0,0,0,0,0,0,-0.1061,-0.1063,-0.1131,-0.1132,-0.1132,-0.1179,-0.118,-0.118,-0.1231,-0.1232,-0.1233,-0.1233,-0.1268,-0.1268,-0.1269,0,0,0,0,0,0,0,0,0,0,0,0,0,-0.11,-0.1063,-0.1131,-0.1162,-0.1166,-0.1179,-0.118,-0.118,-0.1231,-0.1232,-0.1233,-0.1234,-0.1268,-0.1268,-0.1269,-0.1253,0,0,-0.127,-0.1271,0,0,0,0,0,0,0,0,-0.1097,-0.1102,-0.1157,-0.116,-0.1164,-0.1199,-0.1168,-0.1204,-0.1231,-0.1207,-0.1233,-0.1234,-0.1242,-0.1245,-0.1254,-0.1255,-0.1256,-0.127,-0.1271,-0.1271,-0.1271,0,0,0,0,0,0,0,-0.1095,-0.11,-0.1151,-0.1158,-0.1162,-0.1166,-0.1173,-0.1175,-0.1219,-0.1209,-0.1213,-0.1216,-0.1244,-0.1253,-0.1255,-0.1257,-0.127,-0.1271,-0.1271,-0.1271,-0.134,-0.1341,0,0,0,0,0,0,-0.1087,-0.1098,-0.1149,-0.1152,-0.1131,-0.1167,-0.1174,-0.1188,-0.122,-0.1225,-0.1215,-0.1218,-0.1252,-0.1254,-0.1256,-0.1314,-0.1271,-0.1271,-0.1272,-0.1338,-0.134,-0.1342,0,0,0,0,0,0,-0.1086,-0.1092,-0.1148,-0.1125,-0.1132,-0.1167,-0.1181,-0.1188,-0.1221,-0.1224,-0.123,-0.1244,-0.1252,-0.1255,-0.1285,-0.1312,-0.1272,-0.1272,-0.1337,-0.1339,-0.1341,-0.1381,0,0,0,0,0,0,-0.1084,-0.1091,-0.1106,-0.1125,-0.1133,-0.1177,-0.1181,-0.1188,-0.1219,-0.1225,-0.125,-0.1253,-0.1253,-0.1284,-0.1285,-0.1312,-0.1272,-0.1335,-0.1338,-0.134,-0.1377,-0.1384,-0.139,0,0,0,0,0,-0.1081,-0.1094,-0.1107,-0.1113,-0.115,-0.1178,-0.1184,-0.1211,-0.122,-0.1242,-0.126,-0.1253,-0.1304,-0.1286,-0.1287,-0.1314,-0.1333,-0.1337,-0.134,-0.1375,-0.1383,-0.1389,0,0,0,0,0,0,-0.1063,-0.1101,-0.1115,-0.1137,-0.1166,-0.1187,-0.1206,-0.1222,-0.1253,-0.1263,-0.1265,-0.127,-0.1308,-0.1306,-0.1286,-0.1345,-0.132,-0.1324,-0.1346,-0.1354,-0.136,-0.1367,-0.1273,0,0,0,0,0,-0.1066,-0.1095,-0.1124,-0.1144,-0.116,-0.1187,-0.1203,-0.1226,-0.1249,-0.1265,-0.1281,-0.13,-0.1318,-0.1332,-0.1346,-0.1371,-0.1356,-0.1394,-0.14,-0.1405,-0.1413,-0.1417,-0.1423,-0.1353,-0.1353,-0.1353,0,0,-0.1066,-0.1088,-0.1105,-0.1144,-0.1167,-0.1199,-0.1201,-0.1237,-0.1268,-0.1261,-0.131,-0.132,-0.1329,-0.1365,-0.1382,-0.137,-0.1415,-0.1409,-0.1413,-0.1419,-0.1421,-0.1427,-0.1433,-0.1355,-0.1355,-0.1355,0,0,-0.1079,-0.11,-0.1134,-0.1162,-0.1205,-0.1218,-0.1234,-0.1272,-0.1299,-0.1337,-0.1344,-0.1371,-0.1398,-0.1413,-0.1421,-0.1468,-0.1445,-0.148,-0.1517,-0.152,-0.1526,-0.153,-0.1504,-0.1506,-0.1485,-0.1485,-0.1485,0,-0.1068,-0.1122,-0.1146,-0.1186,-0.1212,-0.123,-0.1272,-0.1294,-0.1339,-0.1367,-0.1363,-0.1416,-0.142,-0.1462,-0.1484,-0.1481,-0.1471,-0.1485,-0.1527,-0.1531,-0.1535,-0.1507,-0.1508,-0.1487,-0.1487,-0.1487,-0.1486,0,-0.1117,-0.1159,-0.1178,-0.1236,-0.1268,-0.1303,-0.1337,-0.1373,-0.1397,-0.1422,-0.1476,-0.1479,-0.1516,-0.152,-0.1516,-0.1557,-0.1536,-0.1529,-0.1503,-0.1544,-0.1512,-0.1513,-0.149,-0.149,-0.1489,-0.1488,0,0,-0.1081,-0.1191,-0.12,-0.1246,-0.1301,-0.1333,-0.1381,-0.1436,-0.1478,-0.1509,-0.1556,-0.1586,-0.1595,-0.1605,-0.1603,-0.1604,-0.1613,-0.1587,-0.1586,-0.1551,-0.1604,-0.1487,-0.1476,-0.1617,-0.1618,-0.1619,-0.1563,0,-0.1107,-0.1202,-0.1246,-0.1324,-0.1372,-0.1408,-0.1454,-0.1508,-0.154,-0.1585,-0.1597,-0.1635,-0.1625,-0.1643,-0.1648,-0.1624,-0.1621,-0.1628,-0.1578,-0.1576,-0.1459,-0.1475,-0.1622,-0.1564,-0.1564,-0.1564,-0.1564,0,-0.1131,-0.12,-0.1296,-0.1392,-0.1417,-0.1462,-0.1543,-0.1588,-0.1645,-0.167,-0.1707,-0.1713,-0.1731,-0.1705,-0.1689,-0.1697,-0.1664,-0.1632,-0.1629,-0.1508,-0.1461,-0.152,-0.1565,-0.1565,-0.1565,-0.1565,-0.1565,0,-0.111,-0.1221,-0.1306,-0.1341,-0.1452,-0.1503,-0.1551,-0.1624,-0.1655,-0.1722,-0.1735,-0.1772,-0.1767,-0.1752,-0.1692,-0.1702,-0.1643,-0.1645,-0.1505,-0.1496,-0.16,-0.1596,-0.1634,-0.1635,-0.1635,-0.1635,-0.1635,0,-0.1104,-0.117,-0.1312,-0.136,-0.1443,-0.1525,-0.1595,-0.1648,-0.1706,-0.1719,-0.1779,-0.1759,-0.178,-0.1743,-0.1704,-0.159,-0.1655,-0.1508,-0.1477,-0.1616,-0.1614,-0.1599,-0.1595,-0.1633,-0.1633,-0.1634,-0.1634,0,-0.1062,-0.1157,-0.1255,-0.1399,-0.1437,-0.1499,-0.1587,-0.162,-0.1698,-0.1706,-0.1721,-0.1748,-0.1692,-0.1681,-0.1629,-0.1574,-0.1498,-0.1443,-0.157,-0.1548,-0.1348,-0.1347,-0.1292,-0.1288,-0.1284,-0.1281,-0.1278,0,-0.1054,-0.1111,-0.1265,-0.1303,-0.1368,-0.1459,-0.1494,-0.1593,-0.1608,-0.1658,-0.1633,-0.1623,-0.1615,-0.1445,-0.1459,-0.1382,-0.1364,-0.1336,-0.1369,-0.1339,-0.1315,-0.1321,-0.1325,-0.1272,-0.1271,-0.127,-0.1269,0,-0.1029,-0.1093,-0.1167,-0.1244,-0.13,-0.135,-0.1411,-0.1415,-0.1496,-0.1572,-0.1498,-0.1459,-0.1387,-0.1341,-0.1291,-0.1238,-0.1368,-0.1296,-0.1304,-0.1335,-0.1314,-0.1295,-0.1304,-0.1256,-0.1257,-0.1259,-0.1259,0,-0.0995,-0.1021,-0.1106,-0.1156,-0.1215,-0.1221,-0.1274,-0.1277,-0.1307,-0.1378,-0.1331,-0.1318,-0.1346,-0.126,-0.1203,-0.1154,-0.1144,-0.1129,-0.1146,-0.1161,-0.1145,-0.11,-0.0944,0,0,0,0,0,-0.0953,-0.0955,-0.0999,-0.1045,-0.1095,-0.1121,-0.1198,-0.125,-0.1328,-0.1237,-0.1289,-0.1211,-0.1133,-0.1129,-0.1047,-0.1143,-0.1154,-0.1046,-0.1149,-0.1182,-0.1197,-0.1191,0,0,0,0,0,0,-0.0912,-0.0953,-0.0963,-0.0934,-0.0934,-0.0967,-0.1012,-0.1069,-0.1038,-0.1119,-0.1075,-0.1135,-0.107,-0.1139,-0.1013,-0.1014,-0.1057,-0.1053,-0.105,-0.1173,-0.1187,-0.1199,-0.1198,0,0,0,0,0]},{"header":{"parameterUnit":"m.s-1","parameterCategory":2,"la1":30.2991,"la2":30.254,"lo1":-89.0895,"lo2":-89.0444,"dy":0.0017,"dx":0.0017,"nx":28,"ny":28,"refTime":"2024-08-31T21:00:00:Z","depth":"4","parameterNumber":3,"parameterNumberName":"V-component_of_CURRENTS"},"data":[0,0,0,0,0,0,0,0,0,0,0,0,0,0,0,0,0,0,0,0,0,0,0,0,0,0,0,0,0,0,0,0,0,0,0,0,0,0,0,0,0,0,0,0,0,0,0,0,0,0,0,0,0,0,0,0,0,0,-0.0157,-0.0157,0,-0.0116,-0.0116,-0.0116,-0.0092,-0.0092,-0.0092,-0.0092,-0.0021,-0.0019,-0.0017,0,0,0,0,0,0,0,0,0,0,0,0,0,-0.0173,-0.0173,-0.0157,-0.0156,-0.0156,-0.0116,-0.0116,-0.0115,-0.0092,-0.0092,-0.0092,-0.0092,-0.0021,-0.0019,-0.0017,0,0,0,0,0,0,0,0,0,0,0,0,0,-0.0153,-0.0173,-0.0157,-0.0139,-0.0137,-0.0117,-0.0116,-0.0115,-0.0092,-0.0092,-0.0092,-0.0092,-0.0022,-0.0019,-0.0017,-0.0004,0,0,-0.0009,-0.0007,0,0,0,0,0,0,0,0,-0.0154,-0.0152,-0.0142,-0.014,-0.0138,-0.0109,-0.0095,-0.0076,-0.0092,-0.011,-0.0092,-0.0092,-0.0047,-0.0042,-0.0036,-0.0001,0.0002,-0.0008,-0.0007,-0.0006,-0.0005,0,0,0,0,0,0,0,-0.0156,-0.0154,-0.0141,-0.0142,-0.0139,-0.0119,-0.0116,-0.0092,-0.008,-0.0108,-0.0106,-0.0101,-0.0046,-0.0039,-0.0034,0.0003,-0.0008,-0.0006,-0.0004,-0.0003,0.0058,0.0058,0,0,0,0,0,0,-0.0162,-0.0155,-0.0143,-0.014,-0.0145,-0.0119,-0.0116,-0.0119,-0.0081,-0.0075,-0.0101,-0.01,-0.0044,-0.0037,-0.0032,-0.0012,-0.0006,-0.0003,-0.0002,0.0058,0.0058,0.0058,0,0,0,0,0,0,-0.0163,-0.0162,-0.0144,-0.0146,-0.0142,-0.0119,-0.0122,-0.0118,-0.0113,-0.0076,-0.0069,-0.01,-0.0043,-0.0035,-0.0011,-0.0009,-0.0002,0.0,0.0057,0.0058,0.0058,0.0026,0,0,0,0,0,0,-0.0164,-0.0162,-0.0169,-0.0147,-0.0142,-0.0138,-0.0122,-0.0117,-0.0109,-0.0108,-0.0073,-0.0066,-0.0042,-0.0015,-0.0009,-0.0005,0.0003,0.0057,0.0057,0.0058,0.0027,0.0025,0.0023,0,0,0,0,0,-0.0164,-0.0176,-0.017,-0.0168,-0.0152,-0.0138,-0.0134,-0.0117,-0.011,-0.0111,-0.0085,-0.0067,-0.001,-0.0013,-0.0005,-0.0001,0.0057,0.0057,0.0058,0.0028,0.0025,0.0023,0,0,0,0,0,0,-0.0184,-0.0174,-0.0167,-0.0174,-0.0159,-0.0134,-0.0135,-0.0121,-0.0102,-0.01,-0.0066,-0.0057,-0.0036,-0.0015,-0.0019,0.0016,0.0026,0.0028,0.0001,-0.0001,-0.0003,-0.0007,0.0005,0,0,0,0,0,-0.0193,-0.02,-0.0181,-0.0186,-0.0182,-0.0159,-0.0152,-0.014,-0.0118,-0.0111,-0.0085,-0.0056,-0.003,-0.0013,0.001,0.0031,0.0056,0.0039,0.0037,0.0035,0.0037,0.0078,0.008,0.0058,0.0058,0.0058,0,0,-0.0202,-0.0196,-0.02,-0.0191,-0.0179,-0.0176,-0.0155,-0.0149,-0.014,-0.0105,-0.0089,-0.0065,-0.0027,-0.0005,0.0006,0.0014,0.0053,0.0035,0.0033,0.0036,0.0078,0.008,0.0082,0.0058,0.0058,0.0058,0,0,-0.0225,-0.0219,-0.0235,-0.0226,-0.0212,-0.0193,-0.0193,-0.0171,-0.0156,-0.0137,-0.011,-0.0083,-0.0047,-0.0016,0.0004,0.0007,0.0037,0.0011,0.0004,0.0044,0.0046,0.0048,0.0074,0.0079,0.0015,0.0015,0.0015,0,-0.0237,-0.0251,-0.0235,-0.0243,-0.0236,-0.0203,-0.021,-0.0188,-0.0159,-0.0144,-0.0138,-0.0075,-0.005,-0.0008,-0.001,0.0003,0.0025,0.0009,0.0041,0.0044,0.0047,0.0073,0.0079,0.0013,0.0013,0.0014,0.0014,0,-0.0269,-0.0279,-0.0285,-0.0284,-0.0272,-0.0273,-0.024,-0.0224,-0.02,-0.0175,-0.0136,-0.0096,-0.0057,-0.0045,-0.0027,0.0009,0.0017,0.003,0.0046,0.0047,0.0075,0.0082,0.0011,0.0012,0.0012,0.0012,0,0,-0.0297,-0.0309,-0.0311,-0.0319,-0.0294,-0.0289,-0.0267,-0.0237,-0.0219,-0.0183,-0.0153,-0.0109,-0.0084,-0.0059,-0.0026,0.0009,0.0042,0.0024,0.0027,0.0047,0.0121,0.0107,0.0113,0.0061,0.0062,0.0063,0.0129,0,-0.0327,-0.0362,-0.0347,-0.0362,-0.0376,-0.0333,-0.0314,-0.0278,-0.0237,-0.0199,-0.0142,-0.0109,-0.0087,-0.007,-0.0029,0.0027,0.0059,0.0022,0.0119,0.0122,0.0108,0.0121,0.0067,0.0134,0.0136,0.0137,0.0138,0,-0.036,-0.038,-0.0414,-0.0408,-0.0407,-0.0406,-0.0363,-0.0341,-0.0271,-0.0238,-0.0183,-0.0136,-0.0074,-0.0061,0.0042,0.0017,0.0062,0.0104,0.0108,0.0112,0.0121,0.0136,0.015,0.0149,0.0148,0.0147,0.0147,0,-0.0398,-0.0418,-0.045,-0.0452,-0.0441,-0.044,-0.0423,-0.0363,-0.0337,-0.0265,-0.0236,-0.0149,-0.0104,-0.0031,0.0055,0.0049,0.0167,0.0172,0.0203,0.0202,0.0209,0.0206,0.0238,0.0238,0.0238,0.0238,0.0238,0,-0.0433,-0.0456,-0.0479,-0.05,-0.0521,-0.0491,-0.0487,-0.0448,-0.0387,-0.0347,-0.0268,-0.0211,-0.0095,-0.001,0.0058,0.0153,0.0171,0.0205,0.0222,0.0192,0.0187,0.0213,0.021,0.024,0.024,0.0239,0.0239,0,-0.047,-0.0486,-0.0528,-0.0544,-0.0549,-0.0566,-0.0543,-0.0526,-0.0466,-0.0408,-0.0387,-0.0253,-0.0138,-0.0028,0.0105,0.0154,0.0243,0.0268,0.0222,0.0235,0.025,0.0244,0.0311,0.0311,0.0311,0.0311,0.0311,0,-0.0492,-0.0525,-0.0574,-0.0597,-0.0611,-0.0627,-0.0628,-0.0578,-0.0545,-0.0426,-0.0393,-0.0268,-0.0175,0.0014,0.0116,0.0247,0.0259,0.0296,0.0277,0.0249,0.0259,0.0253,0.0247,0.0312,0.0312,0.0312,0.0312,0,-0.0534,-0.0561,-0.0594,-0.0646,-0.0671,-0.0686,-0.0678,-0.0656,-0.0572,-0.0528,-0.0375,-0.0256,-0.0119,0.0026,0.0126,0.0217,0.027,0.0298,0.0298,0.028,0.0251,0.0259,0.0253,0.0312,0.0312,0.0312,0.0312,0,-0.0562,-0.0593,-0.0639,-0.0673,-0.071,-0.0714,-0.0711,-0.0646,-0.0602,-0.0458,-0.0409,-0.0244,-0.0138,0.0011,0.0104,0.0192,0.0209,0.0225,0.023,0.023,0.0182,0.0131,0.0175,0,0,0,0,0,-0.0582,-0.0609,-0.0651,-0.0687,-0.0723,-0.0736,-0.072,-0.0697,-0.0623,-0.0518,-0.0452,-0.0317,-0.0127,-0.0036,0.005,0.0074,0.0193,0.0173,0.0207,0.0314,0.0314,0.0269,0,0,0,0,0,0,-0.0592,-0.0641,-0.0653,-0.0687,-0.0707,-0.0735,-0.0725,-0.0677,-0.0601,-0.0511,-0.0404,-0.0319,-0.0141,-0.0179,0.0045,0.0073,0.0101,0.0268,0.0269,0.0315,0.0314,0.0314,0.0267,0,0,0,0,0]}]]